Location: Bothwell
(42.3833°S, 147.0000°E)
Time: 23:30:41
(UTC+10:00)

FO-29 - Visible Passes

Search period start: 25 September 2022 00:00
Search period end: 05 October 2022 01:00
Orbit: 800 x 1321 km, 98.5° (Epoch: 24 September)

Date Brightness Start Highest point End Pass type
(mag) Time Alt. Az. Time Alt. Az. Time Alt. Az.
25 Sep 11.8 04:43:46 10° NE 04:50:46 36° ESE 04:57:32 10° S visible
25 Sep 10.3 19:23:09 10° S 19:29:27 54° WSW 19:34:58 10° NW visible
26 Sep 12.8 03:52:02 10° E 03:56:36 17° SE 04:01:02 10° SSE visible
26 Sep 11.8 20:14:00 10° S 20:18:52 23° WSW 20:23:19 10° WNW visible
27 Sep 11.9 04:38:59 10° NE 04:45:50 34° ESE 04:52:26 10° S visible
27 Sep 10.2 19:18:09 10° S 19:24:22 58° WSW 19:29:51 10° NNW visible
28 Sep 12.8 03:47:29 10° E 03:51:41 16° SE 03:55:46 10° SSE visible
28 Sep 11.8 20:08:57 10° S 20:13:50 24° WSW 20:18:19 10° WNW visible
29 Sep 12.0 04:34:13 10° ENE 04:40:55 32° ESE 04:47:18 10° S visible
29 Sep 10.0 19:13:08 10° S 19:19:17 62° WSW 19:24:43 10° NNW visible
29 Sep 12.8 21:02:36 10° SW 21:02:51 10° SW 21:03:07 10° SW visible
30 Sep 12.8 03:43:00 10° E 03:46:47 15° SE 03:50:26 10° SSE visible
30 Sep 11.7 20:03:52 10° S 20:08:48 25° WSW 20:13:18 10° WNW visible
01 Oct 12.1 04:29:29 10° ENE 04:35:59 30° ESE 04:42:09 10° S visible
01 Oct 9.8 19:08:07 10° S 19:14:11 66° WSW 19:19:34 10° NNW visible
01 Oct 12.7 20:56:46 10° SW 20:57:51 10° SW 20:58:55 10° WSW visible
02 Oct 12.9 04:38:34 10° E 04:41:51 13° SE 04:45:02 10° SSE visible
02 Oct 11.6 20:58:48 10° S 21:03:45 27° WSW 21:08:16 10° WNW visible
03 Oct 12.2 05:24:45 10° ENE 05:31:02 28° ESE 05:36:58 10° S visible
03 Oct 9.7 20:03:06 10° S 20:09:04 71° WSW 20:14:25 10° NNW visible
03 Oct 12.7 21:51:20 10° SW 21:52:51 11° SW 21:54:19 10° WSW visible
04 Oct 13.0 04:34:15 10° ESE 04:36:55 12° SE 04:39:32 10° SSE visible
04 Oct 11.4 20:53:42 10° S 20:58:40 28° WSW 21:03:14 10° WNW visible
